FW0256 Weather Reports


time (UTC)temp
F
wind
direction
speed
knots
gust
knots
rain 1hr
in
rain 24hr
in
rain mn
in
humidity
%
barometer
mb
20260505200030 51 360 3.5 7.8 0.00 0.00 0.00 78 1013.7
20260505195514 51 360 3.5 9.6 0.00 0.00 0.00 78 1013.6
20260505195009 51 360 2.6 9.6 0.00 0.00 0.00 77 1013.6
20260505194529 51 360 4.3 9.6 0.00 0.00 0.00 77 1013.5
20260505194011 51 360 5.2 9.6 0.00 0.00 0.00 77 1013.4
20260505193509 51 360 4.3 9.6 0.00 0.00 0.00 77 1013.4
20260505193030 51 360 5.2 11.3 0.00 0.00 0.00 78 1013.4
20260505192508 52 360 3.5 11.3 0.00 0.00 0.00 77 1013.4
20260505192007 52 360 3.5 10.4 0.00 0.00 0.00 76 1013.4
20260505191527 53 360 5.2 10.4 0.00 0.00 0.00 75 1013.2
20260505191011 53 360 4.3 12.2 0.00 0.00 0.00 72 1013.3
20260505190512 54 360 5.2 12.2 0.00 0.00 0.00 69 1013.1
20260505190038 54 360 2.6 7.8 0.00 0.00 0.00 65 1013.1
20260505185509 54 360 2.6 7.8 0.00 0.00 0.00 65 1013.0
20260505185012 54 360 1.7 7.8 0.00 0.00 0.00 65 1012.9
20260505184532 54 360 2.6 7.0 0.00 0.00 0.00 64 1012.9
20260505184010 54 360 2.6 7.0 0.00 0.00 0.00 64 1012.9
20260505183510 55 360 1.7 7.0 0.00 0.00 0.00 64 1012.9
20260505183029 55 360 1.7 7.0 0.00 0.00 0.00 65 1012.9
20260505182510 55 360 1.7 7.0 0.00 0.00 0.00 65 1012.8
20260505182011 55 360 2.6 7.8 0.00 0.00 0.00 64 1012.8
20260505181529 55 360 1.7 7.8 0.00 0.00 0.00 64 1012.8
20260505181008 55 360 2.6 8.7 0.00 0.00 0.00 64 1012.8
20260505180510 55 360 2.6 9.6 0.00 0.00 0.00 63 1012.8
20260505180036 55 360 3.5 9.6 0.00 0.00 0.00 62 1012.8
20260505175510 56 360 1.7 7.8 0.00 0.00 0.00 62 1012.9
20260505175008 56 360 1.7 5.2 0.00 0.00 0.00 62 1012.8
20260505174528 56 360 2.6 7.0 0.00 0.00 0.00 62 1012.8
20260505174010 56 360 1.7 7.8 0.00 0.00 0.00 62 1012.8
20260505173511 56 360 2.6 7.8 0.00 0.00 0.00 61 1012.8
20260505173029 56 360 1.7 10.4 0.00 0.00 0.00 61 1012.8
20260505172511 56 360 2.6 10.4 0.00 0.00 0.00 60 1012.8
20260505172009 57 360 2.6 7.8 0.00 0.00 0.00 60 1012.9
20260505171529 57 360 1.7 5.2 0.00 0.00 0.00 61 1012.8
20260505171013 56 360 0.9 5.2 0.00 0.00 0.00 62 1012.9
20260505170510 56 360 1.7 7.8 0.00 0.00 0.00 63 1012.9
20260505170031 56 360 0.9 7.8 0.00 0.00 0.00 62 1012.9
20260505165510 56 360 2.6 7.8 0.00 0.00 0.00 62 1012.9
20260505165008 56 360 2.6 7.8 0.00 0.00 0.00 62 1012.8
20260505164526 56 360 1.7 8.7 0.00 0.00 0.00 62 1012.8
20260505164010 56 360 2.6 8.7 0.00 0.00 0.00 61 1012.9
20260505163509 56 360 3.5 8.7 0.00 0.00 0.00 60 1012.9
20260505163036 56 360 1.7 7.0 0.00 0.00 0.00 60 1012.8
20260505162509 57 360 2.6 7.0 0.00 0.00 0.00 61 1012.9
20260505162013 57 360 2.6 5.2 0.00 0.00 0.00 61 1012.8
20260505161528 57 360 2.6 7.0 0.00 0.00 0.00 61 1012.8
20260505161009 56 360 1.7 7.0 0.00 0.00 0.00 62 1012.8
20260505160510 56 360 2.6 7.0 0.00 0.00 0.00 61 1012.9
20260505153039 56 360 1.7 8.7 0.00 0.00 0.00 61 1013.1
20260505152509 56 360 1.7 7.0 0.00 0.00 0.00 61 1013.1
20260505152013 56 360 2.6 7.0 0.00 0.00 0.00 61 1013.0
20260505151530 56 360 2.6 5.2 0.00 0.00 0.00 61 1013.0
20260505151009 56 360 2.6 4.3 0.00 0.00 0.00 61 1013.0
20260505150511 56 360 1.7 7.0 0.00 0.00 0.00 61 1013.1
20260505140510 57 360 3.5 9.6 0.00 0.00 0.00 61 1013.1
20260505125015 57 360 2.6 9.6 0.00 0.00 0.00 62 1013.1
20260505124530 57 360 4.3 9.6 0.00 0.00 0.00 61 1013.1
20260505124012 57 360 2.6 9.6 0.00 0.00 0.00 62 1013.1
20260505123511 57 360 2.6 9.6 0.00 0.00 0.00 62 1013.2
20260505123028 57 360 2.6 7.8 0.00 0.00 0.00 62 1013.1
20260505122509 57 360 2.6 7.8 0.00 0.00 0.00 62 1013.1
20260505122011 57 360 3.5 8.7 0.00 0.00 0.00 62 1013.1
20260505121532 57 360 2.6 8.7 0.00 0.00 0.00 62 1013.1
20260505121009 57 360 3.5 8.7 0.00 0.00 0.00 61 1013.2
20260505120510 57 360 2.6 8.7 0.00 0.00 0.00 61 1013.1
20260505120040 57 360 2.6 8.7 0.00 0.00 0.00 61 1013.1
20260505115510 57 360 3.5 7.8 0.00 0.00 0.00 60 1013.1
20260505115009 58 360 1.7 7.8 0.00 0.00 0.00 60 1013.1
20260505114529 58 360 2.6 8.7 0.00 0.00 0.00 58 1013.0
20260505114009 59 360 2.6 8.7 0.00 0.00 0.00 58 1013.1
20260505113511 59 360 2.6 8.7 0.00 0.00 0.00 58 1013.1
20260505113028 59 360 2.6 8.7 0.00 0.00 0.00 59 1013.2
20260505112508 58 360 3.5 7.8 0.00 0.00 0.00 60 1013.1
20260505112008 58 360 0.9 8.7 0.00 0.00 0.00 63 1013.2
20260505111532 57 360 2.6 9.6 0.00 0.00 0.00 63 1013.2
20260505111008 57 360 2.6 9.6 0.00 0.00 0.00 61 1013.2
20260505110511 58 360 4.3 10.4 0.00 0.00 0.00 60 1013.3
20260505102010 56 360 2.6 7.0 0.00 0.00 0.00 64 1013.8
20260505101533 56 360 1.7 7.0 0.00 0.00 0.00 64 1013.8
20260505101011 56 360 1.7 7.0 0.00 0.00 0.00 66 1013.7
20260505100513 55 360 2.6 7.0 0.00 0.00 0.00 64 1013.7
20260505100031 56 360 2.6 7.0 0.00 0.00 0.00 66 1013.7
20260505095509 55 360 0.9 5.2 0.00 0.00 0.00 68 1013.7
20260505095009 55 360 1.7 5.2 0.00 0.00 0.00 68 1013.8
20260505094530 55 360 1.7 4.3 0.00 0.00 0.00 68 1013.7
20260505094012 55 360 0.9 5.2 0.00 0.00 0.00 68 1013.8
20260505093507 55 360 1.7 7.0 0.00 0.00 0.00 68 1013.9
20260505093030 55 360 1.7 7.0 0.00 0.00 0.00 69 1013.8
20260505092513 55 360 1.7 7.0 0.00 0.00 0.00 69 1013.8
20260505092010 55 360 1.7 7.8 0.00 0.00 0.00 69 1013.8
20260505091532 55 360 1.7 7.8 0.00 0.00 0.00 71 1013.8
20260505091009 55 360 2.6 7.8 0.00 0.00 0.00 71 1013.6
20260505090510 54 360 1.7 7.8 0.00 0.00 0.00 72 1013.7
20260505090031 54 360 2.6 8.7 0.00 0.00 0.00 72 1013.8
20260505085510 54 360 2.6 8.7 0.00 0.00 0.00 73 1013.8
20260505085009 54 360 1.7 8.7 0.00 0.00 0.00 73 1013.8
20260505084543 54 360 1.7 7.8 0.00 0.00 0.00 73 1013.9
20260505084012 54 360 3.5 7.8 0.00 0.00 0.00 71 1013.9
20260505083509 55 360 0.9 5.2 0.00 0.00 0.00 72 1013.8
20260505083043 54 360 1.7 7.0 0.00 0.00 0.00 72 1013.9
20260505082512 54 360 2.6 8.7 0.00 0.00 0.00 71 1013.9
20260505082013 54 360 1.7 8.7 0.00 0.00 0.00 72 1013.9
20260505081537 53 360 3.5 7.8 0.00 0.00 0.00 71 1013.8
20260505081015 53 360 1.7 7.8 0.00 0.00 0.00 72 1013.9
20260505080512 53 360 2.6 9.6 0.00 0.00 0.00 73 1013.9
20260505080040 52 360 3.5 9.6 0.00 0.00 0.00 74 1013.9
20260505075509 52 360 1.7 7.0 0.00 0.00 0.00 73 1013.9
20260505075011 52 360 2.6 7.0 0.00 0.00 0.00 73 1014.0
20260505074529 52 360 2.6 7.0 0.00 0.00 0.00 73 1013.9
20260505074012 52 360 0.9 7.0 0.00 0.00 0.00 74 1013.9
20260505073512 52 360 2.6 7.0 0.00 0.00 0.00 75 1013.8
20260505073040 52 360 2.6 7.0 0.00 0.00 0.00 76 1013.8
20260505072513 51 360 2.6 7.0 0.00 0.00 0.00 77 1013.8
20260505072011 50 360 2.6 7.0 0.00 0.00 0.00 78 1013.8
20260505071542 50 360 1.7 7.8 0.00 0.00 0.00 79 1013.9
20260505071011 50 360 2.6 7.8 0.00 0.00 0.00 79 1013.9
20260505070515 50 360 1.7 5.2 0.00 0.00 0.00 80 1013.9
20260505070039 50 360 1.7 5.2 0.00 0.00 0.00 81 1014.2
20260505065510 49 360 1.7 7.0 0.00 0.00 0.00 82 1014.0
20260505065011 49 17 0.9 7.0 0.00 0.00 0.00 81 1014.1
20260505064534 50 360 1.7 7.0 0.00 0.00 0.00 81 1014.0
20260505064011 49 360 1.7 5.2 0.00 0.00 0.00 82 1014.0
20260505063509 49 360 1.7 7.0 0.00 0.00 0.00 83 1014.0
20260505063036 49 360 1.7 7.0 0.00 0.00 0.00 83 1014.1
20260505062512 49 0 1.7 5.2 0.00 0.00 0.00 84 1014.0
20260505062013 48 360 1.7 5.2 0.00 0.00 0.00 84 1014.1
20260505061531 48 360 1.7 5.2 0.00 0.00 0.00 84 1014.0
20260505061010 48 360 0.9 5.2 0.00 0.00 0.00 85 1014.0
20260505060514 48 360 1.7 5.2 0.00 0.00 0.00 85 1013.9
20260505060050 47 0 0.9 5.2 0.00 0.00 0.00 86 1013.9
20260505055513 47 360 0.9 5.2 0.00 0.00 0.00 86 1013.9
20260505055014 47 360 1.7 5.2 0.00 0.00 0.00 86 1014.0
20260505054531 46 360 0.9 5.2 0.00 0.00 0.00 87 1014.0
20260505054015 46 360 0.9 5.2 0.00 0.00 0.00 87 1013.8
20260505053514 46 360 1.7 5.2 0.00 0.00 0.00 87 1013.9
20260505053029 46 360 1.7 4.3 0.00 0.00 0.00 87 1014.0
20260505052509 46 360 1.7 4.3 0.00 0.00 0.00 87 1014.0
20260505052011 46 360 1.7 4.3 0.00 0.00 0.00 87 1014.0
20260505051528 46 360 0.9 7.0 0.00 0.00 0.00 86 1013.9
20260505051010 46 360 1.7 7.0 0.00 0.00 0.00 86 1014.0
20260505050510 46 360 2.6 5.2 0.00 0.00 0.00 86 1013.9
20260505041537 46 360 0.9 4.3 0.00 0.00 0.00 86 1013.7
20260505041012 45 360 0.9 4.3 0.00 0.00 0.00 87 1013.7
20260505040517 45 360 1.7 4.3 0.00 0.00 0.00 87 1013.7
20260505040027 45 360 1.7 4.3 0.00 0.00 0.00 87 1013.6
20260505035510 45 360 0.9 4.3 0.00 0.00 0.00 86 1013.7
20260505035015 45 360 0.9 7.8 0.00 0.00 0.00 86 1013.6
20260505034528 45 360 1.7 7.8 0.00 0.00 0.00 86 1013.6
20260505034013 45 360 0.9 4.3 0.00 0.00 0.00 86 1013.6
20260505033510 45 0 0.9 3.5 0.00 0.00 0.00 86 1013.7
20260505033026 46 360 0.0 3.5 0.00 0.00 0.00 86 1013.8
20260505032511 46 360 0.9 3.5 0.00 0.00 0.00 86 1013.7
20260505032013 46 360 0.9 7.0 0.00 0.00 0.00 86 1013.9
20260505031527 46 360 0.0 7.0 0.00 0.00 0.00 86 1013.8
20260505031009 46 360 0.9 5.2 0.00 0.00 0.00 86 1013.9
20260505030509 46 360 0.9 5.2 0.00 0.00 0.00 87 1013.7
20260505030028 46 360 0.9 5.2 0.00 0.00 0.00 87 1013.8
20260505025515 46 0 0.9 3.5 0.00 0.00 0.00 87 1013.9
20260505025010 46 360 0.9 3.5 0.00 0.00 0.00 88 1013.8
20260505024528 47 360 0.9 3.5 0.00 0.00 0.00 88 1013.8
20260505024015 47 360 0.9 3.5 0.00 0.00 0.00 88 1013.8
20260505023511 47 360 0.9 3.5 0.00 0.00 0.00 88 1013.9
20260505023030 47 360 0.9 3.5 0.00 0.00 0.00 88 1013.9
20260505022511 48 360 0.9 5.2 0.00 0.00 0.00 89 1013.9
20260505022014 48 360 0.9 5.2 0.00 0.00 0.00 89 1013.9
20260505021531 48 0 0.9 4.3 0.00 0.00 0.00 89 1013.9
20260505021010 48 0 0.0 2.6 0.00 0.00 0.00 89 1013.9
20260505020510 49 0 0.0 2.6 0.00 0.00 0.00 89 1013.9
20260505020038 49 0 0.9 2.6 0.00 0.00 0.00 89 1013.9
20260505015509 49 0 0.0 0.0 0.00 0.00 0.00 90 1014.0
20260505015010 49 0 0.0 2.6 0.00 0.00 0.00 90 1014.0
20260505014541 49 0 0.0 2.6 0.00 0.00 0.00 90 1014.0
20260505014011 49 0 0.0 3.5 0.00 0.00 0.00 91 1014.2
20260505013513 49 360 0.0 3.5 0.00 0.00 0.00 91 1014.1
20260505013037 49 0 0.9 3.5 0.00 0.00 0.00 91 1014.3
20260505012514 49 0 0.0 2.6 0.00 0.00 0.00 92 1014.3
20260505012013 49 0 0.0 0.9 0.00 0.00 0.00 92 1014.5
20260505011536 49 0 0.0 1.7 0.00 0.00 0.00 92 1014.4
20260505011011 49 0 0.0 1.7 0.00 0.00 0.00 92 1014.4
20260505010511 49 0 0.0 0.0 0.00 0.00 0.00 91 1014.4
20260505010031 48 0 0.0 0.9 0.00 0.00 0.00 91 1014.5
20260505005509 48 0 0.0 0.9 0.00 0.00 0.00 91 1014.5
20260505005012 48 360 0.0 1.7 0.00 0.00 0.00 91 1014.4
20260505004540 48 0 0.0 1.7 0.00 0.00 0.00 91 1014.4
20260505004009 48 360 0.0 1.7 0.00 0.00 0.00 92 1014.7
20260505003511 48 0 0.0 1.7 0.00 0.00 0.00 92 1014.7
20260505003049 48 0 0.0 0.9 0.00 0.00 0.00 92 1014.7
20260505002513 48 0 0.0 0.0 0.00 0.00 0.00 91 1014.9
20260505002008 48 0 0.0 0.9 0.00 0.00 0.00 92 1014.9
20260505001530 47 0 0.0 0.9 0.00 0.00 0.00 92 1014.8
20260505001010 47 0 0.0 0.9 0.00 0.00 0.00 92 1014.8
20260505000512 47 0 0.0 0.9 0.00 0.00 0.00 91 1014.8
20260505000033 47 0 0.0 1.7 0.00 0.00 0.00 91 1014.9
20260504235510 47 0 0.0 1.7 0.00 0.00 0.00 91 1014.9
20260504235012 47 0 0.0 0.0 0.00 0.00 0.00 91 1015.0
20260504234531 47 0 0.0 0.0 0.00 0.00 0.00 91 1015.0
20260504234011 47 0 0.0 0.0 0.00 0.00 0.00 91 1015.0
20260504233508 46 0 0.0 0.0 0.00 0.00 0.00 91 1015.0
20260504233035 46 0 0.0 0.0 0.00 0.00 0.00 91 1015.0
20260504232517 46 0 0.0 0.0 0.00 0.00 0.00 91 1015.0
20260504232012 46 0 0.0 0.0 0.00 0.00 0.00 91 1015.0
20260504231528 46 0 0.0 0.0 0.00 0.00 0.00 90 1015.0
20260504231010 46 0 0.0 0.0 0.00 0.00 0.00 90 1015.1
20260504230514 46 0 0.0 0.0 0.00 0.00 0.00 90 1015.1
20260504230030 47 0 0.0 0.9 0.00 0.00 0.00 90 1015.0
20260504225510 47 0 0.0 0.9 0.00 0.00 0.00 90 1015.1
20260504225009 47 0 0.0 0.9 0.00 0.00 0.00 90 1015.1
20260504224529 47 0 0.0 0.9 0.00 0.00 0.00 89 1015.1
20260504224011 47 0 0.0 0.9 0.00 0.00 0.00 90 1015.1
20260504223512 47 0 0.0 0.9 0.00 0.00 0.00 89 1015.3
20260504223032 47 0 0.0 0.9 0.00 0.00 0.00 89 1015.3
20260504222513 47 0 0.0 0.9 0.00 0.00 0.00 89 1015.3
20260504222012 48 0 0.0 0.9 0.00 0.00 0.00 88 1015.4
20260504221530 48 360 0.0 0.9 0.00 0.00 0.00 88 1015.4
20260504221011 48 0 0.0 0.0 0.00 0.00 0.00 87 1015.4
20260504220511 48 0 0.0 0.0 0.00 0.00 0.00 87 1015.4
20260504220031 49 0 0.0 0.0 0.00 0.00 0.00 86 1015.5
20260504215511 49 0 0.0 0.0 0.00 0.00 0.00 86 1015.4
20260504215014 49 0 0.0 0.0 0.00 0.00 0.00 86 1015.4
20260504214532 50 0 0.0 0.0 0.00 0.00 0.00 86 1015.4
20260504214013 50 0 0.0 0.0 0.00 0.00 0.00 85 1015.4
20260504213511 50 0 0.0 0.0 0.00 0.00 0.00 85 1015.4
20260504213030 51 0 0.0 0.0 0.00 0.00 0.00 84 1015.3
20260504212512 51 0 0.0 0.0 0.00 0.00 0.00 84 1015.3
20260504212014 51 0 0.0 0.0 0.00 0.00 0.00 83 1015.2
20260504211536 51 0 0.0 0.0 0.00 0.00 0.00 82 1015.2
20260504211008 52 0 0.0 0.0 0.00 0.00 0.00 83 1015.1
20260504210511 52 0 0.0 0.9 0.00 0.00 0.00 82 1015.2
20260504210036 52 0 0.0 1.7 0.00 0.00 0.00 82 1015.2
20260504205509 52 0 0.0 1.7 0.00 0.00 0.00 82 1015.4
20260504205009 52 0 0.0 0.9 0.00 0.00 0.00 82 1015.4
20260504204532 52 0 0.0 0.9 0.00 0.00 0.00 82 1015.4
20260504204009 52 0 0.0 1.7 0.00 0.00 0.00 82 1015.4
20260504203508 52 0 0.0 1.7 0.00 0.00 0.00 82 1015.4
20260504203028 52 0 0.0 1.7 0.00 0.00 0.00 82 1015.4
20260504202509 52 0 0.0 1.7 0.00 0.00 0.00 82 1015.3
20260504202009 52 0 0.0 1.7 0.00 0.00 0.00 82 1015.4
20260504201529 52 0 0.0 2.6 0.00 0.00 0.00 82 1015.3
20260504201012 52 360 0.9 2.6 0.00 0.00 0.00 82 1015.2
20260504200515 52 360 0.0 2.6 0.00 0.00 0.00 82 1015.2